| time (UTC) | temp F | wind direction | speed MPH | gust MPH | rain 1hr in | rain 24hr in | rain mn in | humidity % | barometer mb |
| 20260504060149 | 43 | 314 | 0.0 | 0.0 | 0.00 | 0.00 | 0.00 | 67 | 1015.6 |
| 20260504050617 | 42 | 314 | 0.0 | 0.0 | 0.00 | 0.00 | 0.00 | 71 | 1015.8 |
| 20260504050114 | 42 | 314 | 0.0 | 0.0 | 0.00 | 0.00 | 0.00 | 68 | 1015.9 |
| 20260504045611 | 42 | 314 | 0.0 | 0.0 | 0.00 | 0.00 | 0.00 | 71 | 1015.7 |
| 20260504045106 | 42 | 314 | 0.0 | 0.0 | 0.00 | 0.00 | 0.00 | 67 | 1015.9 |
| 20260504044604 | 42 | 314 | 0.0 | 0.0 | 0.00 | 0.00 | 0.00 | 68 | 1015.8 |
| 20260504044100 | 42 | 314 | 0.0 | 0.0 | 0.00 | 0.00 | 0.00 | 68 | 1015.8 |
| 20260504043558 | 41 | 314 | 0.0 | 0.0 | 0.00 | 0.00 | 0.00 | 67 | 1015.8 |
| 20260504043055 | 41 | 314 | 0.0 | 0.0 | 0.00 | 0.00 | 0.00 | 69 | 1015.8 |
| 20260504042552 | 40 | 314 | 0.0 | 0.0 | 0.00 | 0.00 | 0.00 | 68 | 1015.8 |
| 20260504042044 | 40 | 314 | 0.0 | 0.0 | 0.00 | 0.00 | 0.00 | 68 | 1015.8 |
| 20260504041539 | 40 | 314 | 0.0 | 0.0 | 0.00 | 0.00 | 0.00 | 71 | 1015.9 |
| 20260504041036 | 40 | 314 | 0.0 | 0.0 | 0.00 | 0.00 | 0.00 | 74 | 1016.0 |
| 20260504040533 | 41 | 314 | 0.0 | 0.0 | 0.00 | 0.00 | 0.00 | 67 | 1016.0 |
| 20260504040030 | 41 | 314 | 0.0 | 0.0 | 0.00 | 0.00 | 0.00 | 66 | 1016.0 |
| 20260504035527 | 41 | 314 | 0.0 | 0.0 | 0.00 | 0.00 | 0.00 | 68 | 1015.9 |
| 20260504035023 | 41 | 314 | 0.0 | 0.0 | 0.00 | 0.00 | 0.00 | 67 | 1015.9 |
| 20260504034521 | 41 | 314 | 0.0 | 0.0 | 0.00 | 0.00 | 0.00 | 66 | 1016.0 |
| 20260504034018 | 41 | 314 | 0.0 | 0.0 | 0.00 | 0.00 | 0.00 | 65 | 1015.9 |
| 20260504033516 | 41 | 314 | 0.0 | 0.0 | 0.00 | 0.00 | 0.00 | 66 | 1015.8 |
| 20260504033013 | 41 | 314 | 0.0 | 0.0 | 0.00 | 0.00 | 0.00 | 65 | 1016.1 |
| 20260504032509 | 41 | 314 | 0.0 | 0.0 | 0.00 | 0.00 | 0.00 | 68 | 1016.0 |
| 20260504032006 | 41 | 314 | 0.0 | 0.0 | 0.00 | 0.00 | 0.00 | 67 | 1016.0 |
| 20260504031503 | 41 | 314 | 0.0 | 0.0 | 0.00 | 0.00 | 0.00 | 65 | 1016.2 |
| 20260504030959 | 41 | 314 | 0.0 | 0.0 | 0.00 | 0.00 | 0.00 | 65 | 1016.2 |
| 20260504030457 | 41 | 314 | 0.0 | 0.0 | 0.00 | 0.00 | 0.00 | 64 | 1016.2 |
| 20260504025952 | 41 | 314 | 0.0 | 0.0 | 0.00 | 0.00 | 0.00 | 67 | 1016.0 |
| 20260504025450 | 41 | 314 | 0.0 | 0.0 | 0.00 | 0.00 | 0.00 | 66 | 1016.0 |
| 20260504024947 | 41 | 314 | 0.0 | 0.0 | 0.00 | 0.00 | 0.00 | 66 | 1015.9 |
| 20260504024443 | 42 | 314 | 0.0 | 0.0 | 0.00 | 0.00 | 0.00 | 63 | 1016.0 |
| 20260504023940 | 43 | 314 | 0.0 | 0.0 | 0.00 | 0.00 | 0.00 | 62 | 1015.9 |
| 20260504023437 | 44 | 314 | 0.0 | 0.0 | 0.00 | 0.00 | 0.00 | 58 | 1016.0 |
| 20260504022933 | 44 | 314 | 0.0 | 0.0 | 0.00 | 0.00 | 0.00 | 56 | 1016.0 |
| 20260504022429 | 44 | 314 | 0.0 | 0.0 | 0.00 | 0.00 | 0.00 | 58 | 1015.8 |
| 20260504021926 | 44 | 314 | 0.0 | 0.0 | 0.00 | 0.00 | 0.00 | 59 | 1016.0 |
| 20260504021423 | 44 | 314 | 0.0 | 0.0 | 0.00 | 0.00 | 0.00 | 59 | 1016.1 |
| 20260504020921 | 44 | 314 | 0.0 | 0.0 | 0.00 | 0.00 | 0.00 | 59 | 1016.2 |
| 20260504020417 | 45 | 314 | 0.0 | 0.0 | 0.00 | 0.00 | 0.00 | 56 | 1016.0 |
| 20260504015914 | 46 | 314 | 0.0 | 0.0 | 0.00 | 0.00 | 0.00 | 53 | 1016.0 |
| 20260504015410 | 46 | 314 | 0.0 | 0.0 | 0.00 | 0.00 | 0.00 | 55 | 1015.9 |
| 20260504014906 | 46 | 314 | 0.0 | 0.0 | 0.00 | 0.00 | 0.00 | 54 | 1015.9 |
| 20260504014402 | 46 | 314 | 0.0 | 0.0 | 0.00 | 0.00 | 0.00 | 53 | 1015.9 |
| 20260504013859 | 46 | 314 | 0.0 | 0.0 | 0.00 | 0.00 | 0.00 | 53 | 1015.9 |
| 20260504013357 | 46 | 314 | 0.0 | 0.0 | 0.00 | 0.00 | 0.00 | 53 | 1016.0 |
| 20260504012853 | 47 | 314 | 0.0 | 0.0 | 0.00 | 0.00 | 0.00 | 51 | 1015.9 |
| 20260504012351 | 47 | 314 | 0.0 | 0.0 | 0.00 | 0.00 | 0.00 | 52 | 1015.6 |
| 20260504011848 | 47 | 314 | 0.0 | 0.0 | 0.00 | 0.00 | 0.00 | 52 | 1015.8 |
| 20260504011344 | 47 | 314 | 0.0 | 0.0 | 0.00 | 0.00 | 0.00 | 50 | 1015.7 |
| 20260504010841 | 47 | 314 | 0.0 | 0.0 | 0.00 | 0.00 | 0.00 | 51 | 1015.7 |
| 20260504010336 | 47 | 314 | 0.0 | 0.0 | 0.00 | 0.00 | 0.00 | 50 | 1015.9 |
| 20260504005833 | 47 | 314 | 0.0 | 0.0 | 0.00 | 0.00 | 0.00 | 50 | 1015.8 |
| 20260504005330 | 47 | 314 | 0.0 | 0.0 | 0.00 | 0.00 | 0.00 | 51 | 1015.7 |
| 20260504004827 | 47 | 314 | 0.0 | 0.0 | 0.00 | 0.00 | 0.00 | 52 | 1015.8 |
| 20260504004325 | 47 | 314 | 0.0 | 0.0 | 0.00 | 0.00 | 0.00 | 51 | 1015.7 |
| 20260504003821 | 47 | 314 | 0.0 | 0.0 | 0.00 | 0.00 | 0.00 | 51 | 1015.8 |
| 20260504003318 | 47 | 314 | 0.0 | 0.0 | 0.00 | 0.00 | 0.00 | 51 | 1015.7 |
| 20260504002814 | 48 | 315 | 0.0 | 0.0 | 0.00 | 0.00 | 0.00 | 49 | 1015.7 |
| 20260504002311 | 48 | 299 | 0.0 | 0.0 | 0.00 | 0.00 | 0.00 | 50 | 1015.7 |
| 20260504001809 | 49 | 298 | 0.0 | 0.0 | 0.00 | 0.00 | 0.00 | 51 | 1015.7 |
| 20260504001306 | 50 | 289 | 0.0 | 1.0 | 0.00 | 0.00 | 0.00 | 48 | 1015.6 |
| 20260504000803 | 50 | 270 | 1.0 | 2.0 | 0.00 | 0.00 | 0.00 | 45 | 1015.7 |
| 20260504000300 | 50 | 295 | 0.0 | 3.0 | 0.00 | 0.00 | 0.00 | 46 | 1015.6 |
| 20260503235758 | 51 | 278 | 2.0 | 3.0 | 0.00 | 0.00 | 0.00 | 44 | 1015.6 |
| 20260503235255 | 51 | 262 | 2.0 | 2.0 | 0.00 | 0.00 | 0.00 | 44 | 1015.6 |
| 20260503234753 | 51 | 285 | 2.0 | 4.0 | 0.00 | 0.00 | 0.00 | 43 | 1015.5 |
| 20260503234250 | 51 | 286 | 6.0 | 9.0 | 0.00 | 0.00 | 0.00 | 43 | 1015.6 |
| 20260503233747 | 52 | 260 | 6.0 | 8.0 | 0.00 | 0.00 | 0.00 | 41 | 1015.7 |
| 20260503233243 | 52 | 270 | 3.0 | 8.0 | 0.00 | 0.00 | 0.00 | 43 | 1015.8 |
| 20260503232741 | 52 | 305 | 1.0 | 3.0 | 0.00 | 0.00 | 0.00 | 44 | 1015.8 |
| 20260503232238 | 52 | 270 | 1.0 | 3.0 | 0.00 | 0.00 | 0.00 | 45 | 1015.9 |
| 20260503231736 | 52 | 278 | 2.0 | 7.0 | 0.00 | 0.00 | 0.00 | 42 | 1015.6 |
| 20260503231232 | 52 | 274 | 3.0 | 4.0 | 0.00 | 0.00 | 0.00 | 44 | 1015.7 |
| 20260503230723 | 53 | 269 | 5.0 | 10.0 | 0.00 | 0.00 | 0.00 | 42 | 1015.7 |
| 20260503230220 | 53 | 283 | 2.0 | 4.0 | 0.00 | 0.00 | 0.00 | 44 | 1015.8 |
| 20260503225717 | 53 | 286 | 4.0 | 9.0 | 0.00 | 0.00 | 0.00 | 43 | 1015.7 |
| 20260503225212 | 53 | 286 | 4.0 | 6.0 | 0.00 | 0.00 | 0.00 | 41 | 1015.6 |
| 20260503224709 | 53 | 257 | 6.0 | 8.0 | 0.00 | 0.00 | 0.00 | 42 | 1015.8 |
| 20260503224207 | 54 | 273 | 8.0 | 10.0 | 0.00 | 0.00 | 0.00 | 42 | 1015.6 |
| 20260503223705 | 54 | 253 | 4.0 | 9.0 | 0.00 | 0.00 | 0.00 | 40 | 1015.6 |
| 20260503223202 | 54 | 232 | 2.0 | 7.0 | 0.00 | 0.00 | 0.00 | 41 | 1015.7 |
| 20260503222658 | 54 | 262 | 6.0 | 8.0 | 0.00 | 0.00 | 0.00 | 42 | 1015.8 |
| 20260503222156 | 54 | 311 | 5.0 | 16.0 | 0.00 | 0.00 | 0.00 | 38 | 1015.9 |
| 20260503221654 | 54 | 303 | 6.0 | 11.0 | 0.00 | 0.00 | 0.00 | 41 | 1015.9 |
| 20260503221151 | 55 | 254 | 9.0 | 11.0 | 0.00 | 0.00 | 0.00 | 41 | 1015.7 |
| 20260503220648 | 55 | 309 | 6.0 | 10.0 | 0.00 | 0.00 | 0.00 | 38 | 1015.8 |
| 20260503220144 | 54 | 279 | 4.0 | 6.0 | 0.00 | 0.00 | 0.00 | 40 | 1015.8 |
| 20260503215641 | 55 | 272 | 7.0 | 10.0 | 0.00 | 0.00 | 0.00 | 40 | 1015.7 |
| 20260503215138 | 55 | 259 | 7.0 | 11.0 | 0.00 | 0.00 | 0.00 | 39 | 1015.7 |
| 20260503214637 | 55 | 242 | 2.0 | 13.0 | 0.00 | 0.00 | 0.00 | 40 | 1015.6 |
| 20260503214132 | 54 | 265 | 3.0 | 7.0 | 0.00 | 0.00 | 0.00 | 41 | 1015.8 |
| 20260503213631 | 55 | 274 | 3.0 | 8.0 | 0.00 | 0.00 | 0.00 | 40 | 1015.9 |
| 20260503213127 | 56 | 314 | 6.0 | 13.0 | 0.00 | 0.00 | 0.00 | 39 | 1015.8 |
| 20260503212625 | 55 | 272 | 2.0 | 4.0 | 0.00 | 0.00 | 0.00 | 43 | 1015.9 |
| 20260503212122 | 54 | 9 | 3.0 | 10.0 | 0.00 | 0.00 | 0.00 | 41 | 1015.7 |
| 20260503211620 | 54 | 285 | 6.0 | 14.0 | 0.00 | 0.00 | 0.00 | 39 | 1015.9 |
| 20260503211115 | 56 | 310 | 10.0 | 13.0 | 0.00 | 0.00 | 0.00 | 38 | 1015.9 |
| 20260503210612 | 55 | 254 | 2.0 | 11.0 | 0.00 | 0.00 | 0.00 | 42 | 1016.0 |
| 20260503210109 | 55 | 287 | 3.0 | 9.0 | 0.00 | 0.00 | 0.00 | 42 | 1015.9 |
| 20260503205604 | 55 | 301 | 5.0 | 11.0 | 0.00 | 0.00 | 0.00 | 39 | 1016.1 |
| 20260503205101 | 53 | 302 | 5.0 | 9.0 | 0.00 | 0.00 | 0.00 | 40 | 1015.9 |
| 20260503204558 | 54 | 292 | 4.0 | 10.0 | 0.00 | 0.00 | 0.00 | 41 | 1016.1 |
| 20260503204055 | 55 | 185 | 4.0 | 6.0 | 0.00 | 0.00 | 0.00 | 39 | 1016.2 |
| 20260503203552 | 53 | 23 | 5.0 | 7.0 | 0.00 | 0.00 | 0.00 | 39 | 1016.2 |
| 20260503203049 | 55 | 258 | 4.0 | 10.0 | 0.00 | 0.00 | 0.00 | 38 | 1016.1 |
| 20260503202547 | 53 | 314 | 4.0 | 9.0 | 0.00 | 0.00 | 0.00 | 40 | 1016.3 |
| 20260503202045 | 54 | 223 | 6.0 | 10.0 | 0.00 | 0.00 | 0.00 | 42 | 1016.4 |
| 20260503201543 | 55 | 276 | 10.0 | 14.0 | 0.00 | 0.00 | 0.00 | 41 | 1016.4 |
| 20260503201040 | 55 | 272 | 2.0 | 11.0 | 0.00 | 0.00 | 0.00 | 43 | 1016.4 |
| 20260503200536 | 54 | 289 | 3.0 | 4.0 | 0.00 | 0.00 | 0.00 | 39 | 1016.5 |
| 20260503200032 | 54 | 302 | 6.0 | 8.0 | 0.00 | 0.00 | 0.00 | 39 | 1016.6 |
| 20260503195530 | 53 | 250 | 6.0 | 10.0 | 0.00 | 0.00 | 0.00 | 44 | 1016.5 |
| 20260503195026 | 55 | 261 | 9.0 | 13.0 | 0.00 | 0.00 | 0.00 | 43 | 1016.6 |
| 20260503194524 | 55 | 262 | 5.0 | 9.0 | 0.00 | 0.00 | 0.00 | 42 | 1016.8 |
| 20260503194023 | 54 | 291 | 4.0 | 10.0 | 0.00 | 0.00 | 0.00 | 40 | 1017.1 |
| 20260503193521 | 53 | 327 | 6.0 | 13.0 | 0.00 | 0.00 | 0.00 | 40 | 1016.9 |
| 20260503193016 | 52 | 291 | 6.0 | 9.0 | 0.00 | 0.00 | 0.00 | 41 | 1016.9 |
| 20260503192512 | 53 | 288 | 3.0 | 6.0 | 0.00 | 0.00 | 0.00 | 39 | 1017.1 |
| 20260503192008 | 54 | 308 | 6.0 | 10.0 | 0.00 | 0.00 | 0.00 | 41 | 1017.1 |
| 20260503191505 | 52 | 327 | 7.0 | 9.0 | 0.00 | 0.00 | 0.00 | 44 | 1017.1 |
| 20260503191001 | 55 | 259 | 9.0 | 11.0 | 0.00 | 0.00 | 0.00 | 41 | 1017.2 |
| 20260503190459 | 53 | 250 | 3.0 | 4.0 | 0.00 | 0.00 | 0.00 | 42 | 1017.2 |
| 20260503185956 | 54 | 311 | 7.0 | 11.0 | 0.00 | 0.00 | 0.00 | 38 | 1017.4 |
| 20260503185452 | 53 | 326 | 7.0 | 10.0 | 0.00 | 0.00 | 0.00 | 40 | 1017.3 |
| 20260503184951 | 54 | 271 | 7.0 | 10.0 | 0.00 | 0.00 | 0.00 | 42 | 1017.4 |
| 20260503184448 | 54 | 301 | 4.0 | 10.0 | 0.00 | 0.00 | 0.00 | 45 | 1017.3 |
| 20260503183944 | 52 | 218 | 7.0 | 10.0 | 0.00 | 0.00 | 0.00 | 43 | 1017.6 |
| 20260503183441 | 52 | 265 | 1.0 | 10.0 | 0.00 | 0.00 | 0.00 | 43 | 1017.7 |
| 20260503182938 | 52 | 280 | 10.0 | 14.0 | 0.00 | 0.00 | 0.00 | 45 | 1017.5 |
| 20260503182437 | 51 | 279 | 7.0 | 9.0 | 0.00 | 0.00 | 0.00 | 44 | 1017.5 |
| 20260503181934 | 52 | 237 | 7.0 | 10.0 | 0.00 | 0.00 | 0.00 | 44 | 1017.6 |
| 20260503181431 | 51 | 261 | 9.0 | 13.0 | 0.00 | 0.00 | 0.00 | 44 | 1017.8 |
| 20260503180927 | 51 | 293 | 6.0 | 7.0 | 0.00 | 0.00 | 0.00 | 45 | 1017.7 |
| 20260503180427 | 52 | 309 | 9.0 | 15.0 | 0.00 | 0.00 | 0.00 | 43 | 1017.9 |
| 20260503175922 | 52 | 250 | 9.0 | 14.0 | 0.00 | 0.00 | 0.00 | 45 | 1017.8 |
| 20260503175420 | 52 | 306 | 5.0 | 8.0 | 0.00 | 0.00 | 0.00 | 51 | 1017.9 |
| 20260503174915 | 51 | 271 | 11.0 | 14.0 | 0.00 | 0.00 | 0.00 | 51 | 1018.0 |
| 20260503174415 | 51 | 309 | 4.0 | 7.0 | 0.00 | 0.00 | 0.00 | 44 | 1017.9 |
| 20260503173914 | 51 | 232 | 7.0 | 13.0 | 0.00 | 0.00 | 0.00 | 46 | 1018.0 |
| 20260503173411 | 50 | 261 | 4.0 | 10.0 | 0.00 | 0.00 | 0.00 | 46 | 1018.0 |
| 20260503172908 | 51 | 302 | 2.0 | 11.0 | 0.00 | 0.00 | 0.00 | 46 | 1018.0 |
| 20260503172405 | 49 | 299 | 10.0 | 13.0 | 0.00 | 0.00 | 0.00 | 48 | 1018.1 |
| 20260503171901 | 50 | 262 | 4.0 | 14.0 | 0.00 | 0.00 | 0.00 | 45 | 1018.2 |
| 20260503171358 | 50 | 283 | 3.0 | 15.0 | 0.00 | 0.00 | 0.00 | 48 | 1018.2 |
| 20260503170855 | 51 | 247 | 7.0 | 14.0 | 0.00 | 0.00 | 0.00 | 49 | 1018.2 |
| 20260503170352 | 49 | 306 | 4.0 | 7.0 | 0.00 | 0.00 | 0.00 | 47 | 1018.2 |
| 20260503150744 | 46 | 306 | 4.0 | 6.0 | 0.00 | 0.00 | 0.00 | 59 | 1019.2 |
| 20260503150240 | 46 | 257 | 5.0 | 9.0 | 0.00 | 0.00 | 0.00 | 55 | 1019.2 |
| 20260503140204 | 43 | 270 | 6.0 | 11.0 | 0.00 | 0.00 | 0.00 | 61 | 1019.2 |
| 20260503131134 | 42 | 305 | 4.0 | 8.0 | 0.00 | 0.00 | 0.00 | 69 | 1018.9 |
| 20260503130632 | 41 | 227 | 8.0 | 10.0 | 0.00 | 0.00 | 0.00 | 67 | 1018.9 |
| 20260503130129 | 41 | 287 | 4.0 | 7.0 | 0.00 | 0.00 | 0.00 | 69 | 1018.9 |
| 20260503110510 | 32 | 268 | 1.0 | 2.0 | 0.00 | 0.00 | 0.00 | 96 | 1018.1 |
| 20260503090356 | 32 | 281 | 0.0 | 0.0 | 0.00 | 0.00 | 0.00 | 95 | 1017.1 |
| 20260503081323 | 32 | 291 | 0.0 | 0.0 | 0.00 | 0.00 | 0.00 | 94 | 1016.9 |
| 20260503080820 | 32 | 291 | 0.0 | 0.0 | 0.00 | 0.00 | 0.00 | 94 | 1016.9 |
| 20260503080317 | 32 | 286 | 0.0 | 0.0 | 0.00 | 0.00 | 0.00 | 93 | 1016.8 |
| 20260503072753 | 34 | 278 | 0.0 | 0.0 | 0.00 | 0.00 | 0.00 | 88 | 1016.5 |
| 20260503072250 | 34 | 273 | 0.0 | 2.0 | 0.00 | 0.00 | 0.00 | 88 | 1016.4 |
| 20260503071746 | 34 | 282 | 1.0 | 3.0 | 0.00 | 0.00 | 0.00 | 88 | 1016.5 |
| 20260503071243 | 35 | 276 | 1.0 | 2.0 | 0.00 | 0.00 | 0.00 | 88 | 1016.5 |
| 20260503070739 | 35 | 277 | 2.0 | 3.0 | 0.00 | 0.00 | 0.00 | 87 | 1016.4 |
| 20260503070237 | 35 | 279 | 1.0 | 3.0 | 0.00 | 0.00 | 0.00 | 88 | 1016.5 |